Weather History for KCCU - September, 2012

Change the Weather History Date:

Saturday, September 29, 2012

  Actual Average (KLXV) Record (KLXV)
Temperature  
Mean Temperature 45 °F -  
Max Temperature 53 °F 56 °F - ()
Min Temperature 37 °F 28 °F - ()
Degree Days  
Heating Degree Days 20 23  
Month to date heating degree days 552  
Since 1 July heating degree days 1274  
Cooling Degree Days 0 0  
Month to date cooling degree days 0  
Year to date cooling degree days 0  
Moisture  
Dew Point 26 °F    
Average Humidity 50    
Maximum Humidity 70    
Minimum Humidity 22    
Precipitation  
Precipitation 0.00 in 0.02 in - ()
Month to date precipitation 1.05  
Year to date precipitation 10.00  
Sea Level Pressure  
Sea Level Pressure 30.53 in    
Wind  
Wind Speed 13 mph (West)    
Max Wind Speed 23 mph    
Max Gust Speed 29 mph    
Visibility 10 miles    
Events Thunderstorm    
T = Trace of Precipitation, MM = Missing Value Source: NWS Daily Summary

Daily Weather History Graph

Daily Weather History Graph

Search for Another Location

Airport or City:

Trip Planner

Search our weather history database for the weather conditions in past years. The results will help you decide how hot, cold, wet, or windy it might be!

Date:

Astronomy

Sep. 29, 2012 Rise Set
Actual Time 6:59 AM MDT 6:49 PM MDT
Civil Twilight 6:32 AM MDT 7:16 PM MDT
Nautical Twilight 6:01 AM MDT 7:47 PM MDT
Astronomical Twilight 5:29 AM MDT 8:18 PM MDT
Moon 6:23 PM MDT (9/29) 6:33 AM MDT (9/29)
Length of Visible Light 12h 43m
Length of Day
11h 50m
Full, 100% of the Moon is Illuminated
Sep 29
Full
Sep 29
Full
Oct 8
Last Quarter
Oct 15
New
Oct 21
First Quarter

Hourly Weather History & Observations

Time (MDT) Temp. Windchill Dew Point Humidity Pressure Visibility Wind Dir Wind Speed Gust Speed Precip Events Conditions
12:15 AM 41.0 °F 33.5 °F 32.0 °F 70% 30.51 in 10.0 mi South 13.8 mph - N/A   Clear
12:35 AM 41.0 °F 33.5 °F 32.0 °F 70% 30.51 in 10.0 mi South 13.8 mph - N/A   Clear
12:55 AM 41.0 °F 32.2 °F 32.0 °F 70% 30.51 in 10.0 mi South 18.4 mph - N/A   Clear
1:15 AM 41.0 °F 32.2 °F 32.0 °F 70% 30.51 in 10.0 mi South 18.4 mph - N/A   Clear
1:35 AM 41.0 °F 32.5 °F 32.0 °F 70% 30.51 in 10.0 mi South 17.3 mph - N/A   Clear
1:55 AM 41.0 °F 34.3 °F 32.0 °F 70% 30.52 in 10.0 mi South 11.5 mph - N/A   Clear
2:15 AM 41.0 °F 39.0 °F 30.2 °F 65% 30.52 in 10.0 mi SW 3.5 mph - N/A   Clear
2:35 AM 41.0 °F 39.0 °F 28.4 °F 61% 30.52 in 10.0 mi SW 3.5 mph - N/A   Clear
2:55 AM 41.0 °F 39.0 °F 28.4 °F 61% 30.51 in 10.0 mi WSW 3.5 mph - N/A   Clear
3:15 AM 41.0 °F 34.7 °F 28.4 °F 61% 30.51 in 10.0 mi West 10.4 mph - N/A   Clear
3:35 AM 39.2 °F 35.9 °F 28.4 °F 65% 30.51 in 10.0 mi West 4.6 mph - N/A   Clear
3:55 AM 41.0 °F 33.1 °F 28.4 °F 61% 30.50 in 10.0 mi West 15.0 mph - N/A   Clear
4:15 AM 39.2 °F 31.6 °F 28.4 °F 65% 30.50 in 10.0 mi West 12.7 mph - N/A   Clear
4:35 AM 39.2 °F 34.2 °F 28.4 °F 65% 30.50 in 10.0 mi WSW 6.9 mph 16.1 mph N/A   Clear
4:55 AM 39.2 °F 33.0 °F 28.4 °F 65% 30.50 in 10.0 mi West 9.2 mph - N/A   Clear
5:15 AM 37.4 °F 31.4 °F 28.4 °F 70% 30.50 in 10.0 mi WSW 8.1 mph 16.1 mph N/A   Clear
5:35 AM 37.4 °F 31.4 °F 28.4 °F 70% 30.51 in 10.0 mi WSW 8.1 mph - N/A   Clear
5:55 AM 37.4 °F 31.4 °F 26.6 °F 65% 30.51 in 10.0 mi West 8.1 mph - N/A   Clear
6:15 AM 39.2 °F 32.5 °F 26.6 °F 61% 30.51 in 10.0 mi West 10.4 mph - N/A   Clear
6:35 AM 37.4 °F 28.2 °F 26.6 °F 65% 30.51 in 10.0 mi West 16.1 mph - N/A   Clear
6:55 AM 37.4 °F 29.3 °F 26.6 °F 65% 30.52 in 10.0 mi West 12.7 mph 16.1 mph N/A   Clear
7:15 AM 37.4 °F 29.8 °F 26.6 °F 65% 30.52 in 10.0 mi West 11.5 mph - N/A   Clear
7:35 AM 37.4 °F 32.1 °F 26.6 °F 65% 30.53 in 10.0 mi WSW 6.9 mph - N/A   Clear
7:55 AM 41.0 °F 36.4 °F 30.2 °F 65% 30.53 in 10.0 mi WSW 6.9 mph - N/A   Clear
8:15 AM 41.0 °F 34.3 °F 28.4 °F 61% 30.53 in 10.0 mi West 11.5 mph - N/A   Clear
8:35 AM 42.8 °F 37.5 °F 28.4 °F 57% 30.54 in 10.0 mi West 9.2 mph - N/A   Clear
8:55 AM 44.6 °F 42.2 °F 30.2 °F 57% 30.54 in 10.0 mi WSW 4.6 mph - N/A   Clear
9:15 AM 44.6 °F 39.2 °F 28.4 °F 53% 30.55 in 10.0 mi West 10.4 mph - N/A   Clear
9:35 AM 44.6 °F 40.2 °F 28.4 °F 53% 30.55 in 10.0 mi West 8.1 mph - N/A   Clear
9:55 AM 44.6 °F 38.4 °F 28.4 °F 53% 30.55 in 10.0 mi West 12.7 mph - N/A   Clear
10:15 AM 44.6 °F 40.7 °F 28.4 °F 53% 30.55 in 10.0 mi WSW 6.9 mph 19.6 mph N/A   Clear
10:35 AM 46.4 °F 41.9 °F 28.4 °F 50% 30.55 in 10.0 mi WSW 9.2 mph - N/A   Scattered Clouds
10:55 AM 46.4 °F 41.5 °F 23.0 °F 40% 30.55 in 10.0 mi West 10.4 mph 19.6 mph N/A   Scattered Clouds
11:15 AM 46.4 °F 40.4 °F 23.0 °F 40% 30.55 in 10.0 mi West 13.8 mph 25.3 mph N/A   Scattered Clouds
11:35 AM 46.4 °F 40.1 °F 21.2 °F 37% 30.55 in 10.0 mi West 15.0 mph 26.5 mph N/A   Scattered Clouds
11:55 AM 48.2 °F - 19.4 °F 32% 30.55 in 10.0 mi West 21.9 mph 25.3 mph N/A   Scattered Clouds
12:15 PM 51.8 °F - 23.0 °F 33% 30.55 in 10.0 mi West 17.3 mph 26.5 mph N/A   Scattered Clouds
12:35 PM 51.8 °F - 23.0 °F 33% 30.55 in 10.0 mi West 10.4 mph 23.0 mph N/A   Mostly Cloudy
12:55 PM 51.8 °F - 23.0 °F 33% 30.54 in 10.0 mi West 18.4 mph 25.3 mph N/A   Scattered Clouds
1:15 PM 48.2 °F - 17.6 °F 30% 30.53 in 10.0 mi WNW 21.9 mph 28.8 mph N/A   Mostly Cloudy
1:35 PM 51.8 °F - 19.4 °F 28% 30.53 in 10.0 mi West 19.6 mph 26.5 mph N/A   Mostly Cloudy
1:55 PM 53.6 °F - 19.4 °F 26% 30.53 in 10.0 mi WNW 21.9 mph 27.6 mph N/A   Mostly Cloudy
2:15 PM 53.6 °F - 19.4 °F 26% 30.53 in 10.0 mi WNW 15.0 mph 27.6 mph N/A   Mostly Cloudy
2:35 PM 53.6 °F - 21.2 °F 28% 30.53 in 10.0 mi West 17.3 mph 24.2 mph N/A   Mostly Cloudy
2:55 PM 53.6 °F - 19.4 °F 26% 30.53 in 10.0 mi WNW 17.3 mph 28.8 mph N/A   Mostly Cloudy
3:15 PM 53.6 °F - 15.8 °F 22% 30.52 in 10.0 mi West 18.4 mph 27.6 mph N/A   Overcast
3:35 PM 53.6 °F - 15.8 °F 22% 30.52 in 10.0 mi WSW 18.4 mph 25.3 mph N/A   Mostly Cloudy
3:55 PM 53.6 °F - 15.8 °F 22% 30.52 in 10.0 mi WNW 15.0 mph 23.0 mph N/A   Mostly Cloudy
4:15 PM 53.6 °F - 17.6 °F 24% 30.51 in 10.0 mi West 20.7 mph 28.8 mph N/A   Mostly Cloudy
4:35 PM 51.8 °F - 19.4 °F 28% 30.51 in 10.0 mi WNW 20.7 mph 27.6 mph N/A   Mostly Cloudy
4:55 PM 53.6 °F - 21.2 °F 28% 30.51 in 10.0 mi WNW 13.8 mph 26.5 mph N/A   Scattered Clouds
5:15 PM 53.6 °F - 21.2 °F 28% 30.51 in 10.0 mi WNW 23.0 mph 28.8 mph N/A   Mostly Cloudy
5:35 PM 48.2 °F - 21.2 °F 34% 30.51 in 10.0 mi West 23.0 mph 27.6 mph N/A   Mostly Cloudy
5:55 PM 46.4 °F 39.0 °F 23.0 °F 40% 30.52 in 10.0 mi West 19.6 mph - N/A   Scattered Clouds
6:15 PM 46.4 °F 38.5 °F 24.8 °F 43% 30.52 in 10.0 mi West 21.9 mph - N/A   Scattered Clouds
6:35 PM 46.4 °F 38.7 °F 24.8 °F 43% 30.52 in 10.0 mi West 20.7 mph - N/A Thunderstorm Mostly Cloudy
6:55 PM 44.6 °F 39.2 °F 26.6 °F 49% 30.54 in 10.0 mi West 10.4 mph 20.7 mph N/A   Overcast
7:15 PM 44.6 °F 37.4 °F 26.6 °F 49% 30.54 in 10.0 mi West 16.1 mph - N/A   Overcast
7:35 PM 44.6 °F 37.2 °F 24.8 °F 46% 30.54 in 10.0 mi West 17.3 mph - N/A   Overcast
7:55 PM 44.6 °F 37.4 °F 24.8 °F 46% 30.54 in 10.0 mi West 16.1 mph - N/A   Overcast
8:15 PM 44.6 °F 38.4 °F 26.6 °F 49% 30.55 in 10.0 mi West 12.7 mph - N/A   Mostly Cloudy
8:35 PM 44.6 °F 37.2 °F 26.6 °F 49% 30.55 in 10.0 mi West 17.3 mph - N/A   Scattered Clouds
8:55 PM 44.6 °F 36.1 °F 26.6 °F 49% 30.55 in 10.0 mi West 21.9 mph 26.5 mph N/A   Mostly Cloudy
9:15 PM 41.0 °F 31.9 °F 26.6 °F 57% 30.56 in 10.0 mi West 19.6 mph - N/A   Mostly Cloudy
9:35 PM 41.0 °F 35.8 °F 28.4 °F 61% 30.56 in 10.0 mi WSW 8.1 mph - N/A   Overcast
9:55 PM 41.0 °F 35.8 °F 28.4 °F 61% 30.57 in 10.0 mi West 8.1 mph - N/A   Overcast
10:15 PM 42.8 °F 36.6 °F 26.6 °F 53% 30.57 in 10.0 mi West 11.5 mph - N/A   Overcast
10:35 PM 41.0 °F 33.1 °F 26.6 °F 57% 30.56 in 10.0 mi West 15.0 mph - N/A   Scattered Clouds
10:55 PM 41.0 °F 33.1 °F 26.6 °F 57% 30.56 in 10.0 mi West 15.0 mph - N/A   Mostly Cloudy
11:15 PM 41.0 °F 33.1 °F 26.6 °F 57% 30.56 in 10.0 mi West 15.0 mph - N/A   Mostly Cloudy
11:35 PM 41.0 °F 33.1 °F 26.6 °F 57% 30.56 in 10.0 mi West 15.0 mph - N/A   Mostly Cloudy
11:55 PM 39.2 °F 35.9 °F 26.6 °F 61% 30.56 in 10.0 mi WSW 4.6 mph - N/A   Scattered Clouds